Weather in Peshawar

Pakistan     33°59′20″N   71°29′25″E
temp.,
°C
wind,
m/s
gust,
m/s
humid.,
%
clouds,
%
prec.,
mm/h
press.,
hPa
HPBL,
m
24 may, tue
tue2423:00+27nnw33300 0.0 1000243
02:00+25ene22390 0.0 1002349
05:00+23nne33430 0.0 1004222
08:00+26nne22350 0.0 1007612
11:00+30s12270 0.0 10071618
14:00+34ese23190 0.0 10052504
17:00+35ese44160 0.0 10032935
20:00+33e23170 0.0 1003877
25 may, wed
wed2523:00+31nne11190 0.0 1004101
02:00+28n23230 0.0 1004158
05:00+26n22280 0.0 1005161
08:00+29nne22240 0.0 1007480
11:00+34ese11180 0.0 10061004
14:00+38ene23150 0.0 10021902
17:00+39e23130 0.0 10002683
20:00+36se24160 0.0 1001903
26 may, thu
thu2623:00+33nnw22170 0.0 100176
02:00+31nnw11190 0.0 100164
05:00+29ne22230 0.0 1001108
08:00+32ne11190 0.0 1002338
11:00+37ese21140 0.0 1001868
14:00+42e2470 0.0 9982584
17:00+43sse2460 0.0 9952898
20:00+39sse25100 0.0 996206
27 may, fri
fri2723:00+35nnw23132 0.0 99770
02:00+32nne23160 0.0 996128
05:00+31e01190 0.0 99654
08:00+34ne11170 0.0 998339
11:00+39ese11120 0.0 996968
14:00+43e2290 0.0 9931542
17:00+44ne23881 0.0 9913563
20:00+40wnw221278 0.0 992107
28 may, sat
sat2823:00+38nw221373 0.0 99344
02:00+33w510175 0.0 993373
05:00+32nw241849 0.0 994182
08:00+35nw36155 0.0 996787
11:00+39nw68112 0.0 9961355
14:00+42nw66101 0.0 9931797
17:00+42nw54913 0.0 9911761
20:00+37w491570 0.0 993632